OPS 5644

导读

OPS 5644是美国于1977年6月5日发射的军用侦察卫星,隶属于美国国家侦察局(NRO),归属海军海洋监视系统(NOSS)计划。作为第一代“白云”系列电子侦察卫星的组成部分,它主要承担对海上舰船的信号情报收集与监测任务,运行在近地轨道,服役期间为美国海军提供了关键的海洋目标态势感知能力,是冷战时期美军空间侦察体系的重要一环。

Basic Information
目录编号:
10033
目录名称:
OPS 5644
国际标识:
1977-044A
轨道中心:
EARTH
卫星名称:
OPS 5644
卫星全名:
--
卫星状态:
在轨 (已飞行17998 天)
发射日期:
1977-06-05 UTC
国别 :
美国 (US)
星等 :
--
This satellite is enrolled in the Space Conjunction Data Service (SCDS) and the current flight risk assessment level is: No High Risk
Orbit Information
数据来源 国际轨道数据 AOE轨道数据
星历时间 2026-09-14T04:25:37+0800
9小时前
查看轨道信息
2026-09-13T00:00:00+0800
1天前
查看轨道信息
半长轴 7164.863km 7164.866km
偏心率 0.0037161 0.0037309
轨道倾角 99.109° 99.108°
近地点辐角 332.711° 336.053°
升交点赤经 309.615° 308.374°
平近点角 27.212° 43.365°
近地点 760.1km 759.997km
远地点 813.352km 813.461km
周期 100.594分钟 100.594分钟
每日圈数 14.314987 14.314979
Detailed Information
使用方式:
暂无
2D Orbit Map
3D Orbit Map
Orbit Altitude Analysis Chart
Orbit Inclination Analysis Chart
Orbit Comprehensive Analysis Chart
View Comprehensive Chart
Conjunction Data List
Event ID Objects TCA Miss Dist (km) Collision Risk Probability Collision Risk Index (CRI) Action
CDM_260914-200301-003302-263926
OPS 5644 (10033)
2026-09-14T
20:03:16+0000
2.814 km
极远距离
1.457591E-6 低风险 0.38
Miss Distance Evolution Trend with All Objects Subscribe to Flight Safety Assessment
Collision Probability Evolution Trend with All Objects Subscribe to Flight Safety Assessment